TimePDT,TemperatureF,Dew PointF,Humidity,Sea Level PressureIn,VisibilityMPH,Wind Direction,Wind SpeedMPH,Gust SpeedMPH,PrecipitationIn,Events,Conditions,WindDirDegrees,DateUTC
12:53 AM,66.9,51.1,57,29.83,10.0,North,3.5,-,N/A,,Clear,350,2013-06-23 07:53:00
1:53 AM,66.9,50.0,54,29.82,10.0,North,4.6,-,N/A,,Overcast,360,2013-06-23 08:53:00
2:53 AM,66.0,51.1,59,29.81,10.0,Calm,Calm,-,N/A,,Mostly Cloudy,0,2013-06-23 09:53:00
3:53 AM,64.0,53.1,67,29.81,10.0,Calm,Calm,-,N/A,,Overcast,0,2013-06-23 10:53:00
4:53 AM,64.0,53.1,67,29.81,10.0,Calm,Calm,-,N/A,,Overcast,0,2013-06-23 11:53:00
5:53 AM,63.0,53.1,70,29.80,10.0,NW,3.5,-,N/A,,Overcast,310,2013-06-23 12:53:00
6:53 AM,64.9,54.0,68,29.79,10.0,Calm,Calm,-,N/A,,Overcast,0,2013-06-23 13:53:00
7:53 AM,66.0,54.0,65,29.78,10.0,NNW,3.5,-,N/A,,Overcast,340,2013-06-23 14:53:00
8:53 AM,68.0,55.0,63,29.77,10.0,NNW,3.5,-,N/A,,Overcast,330,2013-06-23 15:53:00
9:53 AM,66.9,57.9,73,29.75,10.0,NNW,6.9,-,0.00,,Overcast,340,2013-06-23 16:53:00
10:53 AM,72.0,55.0,55,29.74,10.0,NW,6.9,-,N/A,,Mostly Cloudy,310,2013-06-23 17:53:00
11:53 AM,75.0,50.0,41,29.72,10.0,SSW,3.5,-,N/A,,Overcast,210,2013-06-23 18:53:00
12:53 PM,75.0,50.0,41,29.70,10.0,WNW,5.8,-,N/A,,Overcast,290,2013-06-23 19:53:00
1:53 PM,75.9,53.1,45,29.68,10.0,NW,9.2,-,N/A,,Overcast,320,2013-06-23 20:53:00
2:53 PM,78.1,46.9,33,29.66,10.0,ENE,9.2,-,N/A,,Overcast,70,2013-06-23 21:53:00
3:53 PM,78.1,46.9,33,29.65,10.0,NE,5.8,-,0.00,,Overcast,50,2013-06-23 22:53:00
4:53 PM,77.0,48.9,37,29.65,10.0,ESE,9.2,-,N/A,,Overcast,110,2013-06-23 23:53:00
5:53 PM,69.1,59.0,70,29.66,10.0,SSW,8.1,-,0.00,Rain,Light Rain,210,2013-06-24 00:53:00
6:53 PM,66.9,61.0,81,29.67,10.0,NW,5.8,-,0.02,Rain,Light Rain,320,2013-06-24 01:53:00
7:53 PM,66.0,61.0,84,29.65,10.0,Calm,Calm,-,0.01,Rain,Light Rain,0,2013-06-24 02:53:00
8:53 PM,64.0,61.0,90,29.65,10.0,NNW,5.8,-,0.01,,Overcast,330,2013-06-24 03:53:00
9:53 PM,64.0,61.0,90,29.66,10.0,Calm,Calm,-,N/A,,Overcast,0,2013-06-24 04:53:00
10:53 PM,64.0,61.0,90,29.66,10.0,NW,3.5,-,N/A,,Overcast,320,2013-06-24 05:53:00
11:53 PM,63.0,61.0,93,29.65,10.0,WNW,5.8,-,N/A,,Overcast,300,2013-06-24 06:53:00